FW1341 Weather Reports


Display with metric or nautical units.
time (UTC)temp
F
wind
direction
speed
MPH
gust
MPH
rain 1hr
in
rain 24hr
in
rain mn
in
humidity
%
barometer
mb
20260506011759 77 200 6.0 17.0 0.00 0.00 0.00 40 1007.0
20260506010756 77 231 6.0 14.0 0.00 0.00 0.00 39 1006.8
20260506010257 77 217 6.0 15.0 0.00 0.00 0.00 39 1006.8
20260506004757 78 250 4.0 11.0 0.00 0.00 0.00 37 1006.6
20260506004258 78 131 4.0 11.0 0.00 0.00 0.00 37 1006.6
20260506003253 78 203 5.0 14.0 0.00 0.00 0.00 35 1006.5
20260506002753 79 210 6.0 14.0 0.00 0.00 0.00 35 1006.5
20260506001752 79 226 6.0 16.0 0.00 0.00 0.00 34 1006.5
20260506001254 79 198 7.0 16.0 0.00 0.00 0.00 34 1006.4
20260506000747 79 215 5.0 15.0 0.00 0.00 0.00 34 1006.4
20260506000250 79 208 5.0 13.0 0.00 0.00 0.00 35 1006.3
20260505235748 80 146 4.0 13.0 0.00 0.00 0.00 34 1006.3
20260505235248 80 155 5.0 16.0 0.00 0.00 0.00 34 1006.2
20260505234752 80 160 5.0 16.0 0.00 0.00 0.00 33 1006.1
20260505234249 80 221 5.0 15.0 0.00 0.00 0.00 33 1006.2
20260505233248 81 210 5.0 13.0 0.00 0.00 0.00 32 1006.1
20260505232744 82 195 4.0 13.0 0.00 0.00 0.00 31 1006.1
20260505232245 82 203 6.0 15.0 0.00 0.00 0.00 30 1006.1
20260505231247 82 302 5.0 19.0 0.00 0.00 0.00 28 1006.1
20260505230741 83 224 5.0 14.0 0.00 0.00 0.00 28 1006.1
20260505230242 83 264 7.0 16.0 0.00 0.00 0.00 28 1006.1
20260505225740 83 205 6.0 16.0 0.00 0.00 0.00 27 1006.1
20260505225240 83 197 5.0 15.0 0.00 0.00 0.00 28 1006.1
20260505224243 82 181 7.0 16.0 0.00 0.00 0.00 28 1006.2
20260505223736 82 188 7.0 16.0 0.00 0.00 0.00 28 1006.2
20260505223240 83 195 6.0 16.0 0.00 0.00 0.00 27 1006.1
20260505222236 83 194 7.0 18.0 0.00 0.00 0.00 27 1006.1
20260505221735 84 162 7.0 17.0 0.00 0.00 0.00 27 1006.0
20260505221236 84 248 7.0 30.0 0.00 0.00 0.00 25 1006.0
20260505220731 84 233 7.0 30.0 0.00 0.00 0.00 25 1006.0
20260505220234 84 199 6.0 17.0 0.00 0.00 0.00 26 1006.0
20260505215735 84 187 8.0 20.0 0.00 0.00 0.00 27 1006.1
20260505215233 84 235 7.0 20.0 0.00 0.00 0.00 27 1006.1
20260505214732 84 214 6.0 19.0 0.00 0.00 0.00 27 1006.0
20260505214233 84 190 7.0 20.0 0.00 0.00 0.00 27 1006.0
20260505213728 84 174 6.0 20.0 0.00 0.00 0.00 27 1006.0
20260505213229 85 191 5.0 17.0 0.00 0.00 0.00 29 1005.8
20260505212730 85 207 6.0 18.0 0.00 0.00 0.00 29 1005.9
20260505211727 84 302 8.0 16.0 0.00 0.00 0.00 30 1005.8
20260505211232 84 203 7.0 17.0 0.00 0.00 0.00 29 1005.8
20260505210227 84 295 6.0 19.0 0.00 0.00 0.00 28 1006.0
20260505205733 84 201 7.0 22.0 0.00 0.00 0.00 27 1005.9
20260505205228 85 181 6.0 22.0 0.00 0.00 0.00 26 1005.9
20260505204730 85 150 7.0 18.0 0.00 0.00 0.00 27 1005.8
20260505204225 85 233 8.0 21.0 0.00 0.00 0.00 27 1005.8
20260505203728 85 238 9.0 21.0 0.00 0.00 0.00 27 1005.8
20260505203223 85 222 8.0 20.0 0.00 0.00 0.00 27 1005.7
20260505202224 85 185 8.0 23.0 0.00 0.00 0.00 28 1005.9
20260505201725 85 234 7.0 16.0 0.00 0.00 0.00 27 1006.0
20260505201221 85 217 7.0 16.0 0.00 0.00 0.00 28 1005.9
20260505200720 85 167 7.0 20.0 0.00 0.00 0.00 29 1005.9
20260505200223 85 217 8.0 20.0 0.00 0.00 0.00 31 1006.0
20260505195720 85 241 8.0 20.0 0.00 0.00 0.00 30 1006.0
20260505195220 85 250 8.0 17.0 0.00 0.00 0.00 30 1006.0
20260505194721 85 263 7.0 17.0 0.00 0.00 0.00 31 1006.2
20260505194215 85 233 8.0 20.0 0.00 0.00 0.00 30 1006.2
20260505192715 85 186 8.0 19.0 0.00 0.00 0.00 31 1006.4
20260505192216 85 219 9.0 21.0 0.00 0.00 0.00 30 1006.4
20260505191716 85 276 9.0 22.0 0.00 0.00 0.00 31 1006.5
20260505191211 85 250 8.0 22.0 0.00 0.00 0.00 30 1006.7
20260505190712 85 188 7.0 17.0 0.00 0.00 0.00 30 1006.7
20260505190213 85 200 7.0 19.0 0.00 0.00 0.00 30 1006.8
20260505185213 84 193 10.0 21.0 0.00 0.00 0.00 31 1006.9
20260505184208 84 206 6.0 17.0 0.00 0.00 0.00 32 1007.2
20260505183208 84 170 6.0 15.0 0.00 0.00 0.00 32 1007.3
20260505182212 83 283 8.0 19.0 0.00 0.00 0.00 34 1007.4
20260505181710 83 207 9.0 21.0 0.00 0.00 0.00 34 1007.5
20260505181208 83 219 9.0 21.0 0.00 0.00 0.00 34 1007.5
20260505180202 83 219 8.0 19.0 0.00 0.00 0.00 34 1007.7
20260505175202 83 231 10.0 20.0 0.00 0.00 0.00 34 1007.8
20260505173659 83 243 7.0 16.0 0.00 0.00 0.00 35 1007.8
20260505173159 83 194 8.0 18.0 0.00 0.00 0.00 36 1007.8
20260505172700 82 142 8.0 18.0 0.00 0.00 0.00 37 1007.9
20260505172200 83 181 6.0 16.0 0.00 0.00 0.00 37 1007.9
20260505171654 83 188 6.0 18.0 0.00 0.00 0.00 38 1008.0
20260505171154 82 235 7.0 18.0 0.00 0.00 0.00 37 1008.1
20260505170653 82 262 7.0 20.0 0.00 0.00 0.00 38 1008.1
20260505165651 81 257 6.0 15.0 0.00 0.00 0.00 38 1008.2
20260505165150 82 224 4.0 14.0 0.00 0.00 0.00 37 1008.2
20260505164649 82 218 6.0 14.0 0.00 0.00 0.00 39 1008.3
20260505164150 81 180 6.0 16.0 0.00 0.00 0.00 39 1008.4
20260505163144 81 200 5.0 13.0 0.00 0.00 0.00 40 1008.6
20260505162642 81 172 5.0 11.0 0.00 0.00 0.00 40 1008.7
20260505162142 80 198 6.0 11.0 0.00 0.00 0.00 41 1008.9
20260505161644 80 221 6.0 11.0 0.00 0.00 0.00 41 1008.9
20260505160627 79 242 7.0 14.0 0.00 0.00 0.00 42 1008.9
20260505160126 79 231 5.0 13.0 0.00 0.00 0.00 42 1009.0
20260505153117 77 211 5.0 12.0 0.00 0.00 0.00 45 1009.2
20260505152617 77 262 5.0 11.0 0.00 0.00 0.00 45 1009.2
20260505152117 77 204 5.0 12.0 0.00 0.00 0.00 45 1009.3
20260505151617 77 224 4.0 12.0 0.00 0.00 0.00 45 1009.2
20260505151118 76 174 4.0 12.0 0.00 0.00 0.00 46 1009.2
20260505150615 76 199 6.0 12.0 0.00 0.00 0.00 45 1009.2
20260505124539 68 190 3.0 11.0 0.00 0.00 0.00 55 1009.6
20260505124039 68 205 3.0 8.0 0.00 0.00 0.00 55 1009.6
20260505123539 68 194 3.0 9.0 0.00 0.00 0.00 55 1009.6
20260505123039 67 247 4.0 12.0 0.00 0.00 0.00 56 1009.6
20260505122542 67 219 5.0 12.0 0.00 0.00 0.00 56 1009.6
20260505122041 67 195 4.0 11.0 0.00 0.00 0.00 56 1009.5
20260505121540 66 273 4.0 11.0 0.00 0.00 0.00 57 1009.4
20260505120536 66 283 3.0 10.0 0.00 0.00 0.00 57 1009.3
20260505115036 65 204 4.0 12.0 0.00 0.00 0.00 58 1009.3
20260505114535 65 238 3.0 11.0 0.00 0.00 0.00 58 1009.2
20260505113536 65 198 3.0 8.0 0.00 0.00 0.00 59 1009.1
20260505113032 65 156 3.0 8.0 0.00 0.00 0.00 59 1009.1
20260505112530 65 311 3.0 11.0 0.00 0.00 0.00 60 1009.0
20260505112027 65 266 3.0 11.0 0.00 0.00 0.00 60 1009.1
20260505111529 64 149 3.0 9.0 0.00 0.00 0.00 60 1009.0
20260505111028 64 214 4.0 11.0 0.00 0.00 0.00 61 1008.9
20260505110528 64 246 3.0 11.0 0.00 0.00 0.00 61 1008.9
20260505102017 63 323 3.0 8.0 0.00 0.00 0.00 62 1008.6
20260505100016 63 229 2.0 7.0 0.00 0.00 0.00 64 1008.5
20260505095510 63 212 3.0 8.0 0.00 0.00 0.00 63 1008.5
20260505095011 63 180 3.0 11.0 0.00 0.00 0.00 63 1008.4
20260505094512 63 217 3.0 11.0 0.00 0.00 0.00 62 1008.4
20260505094010 63 186 2.0 8.0 0.00 0.00 0.00 62 1008.4
20260505093010 63 273 2.0 8.0 0.00 0.00 0.00 62 1008.3
20260505092504 63 221 3.0 8.0 0.00 0.00 0.00 61 1008.2
20260505092003 63 188 2.0 11.0 0.00 0.00 0.00 62 1008.2
20260505091504 63 188 2.0 11.0 0.00 0.00 0.00 62 1008.1
20260505091005 63 217 1.0 8.0 0.00 0.00 0.00 62 1008.1
20260505090005 63 210 1.0 8.0 0.00 0.00 0.00 62 1008.2
20260505084957 63 160 2.0 6.0 0.00 0.00 0.00 61 1008.2
20260505084000 63 214 2.0 8.0 0.00 0.00 0.00 61 1008.2
20260505082956 64 174 2.0 10.0 0.00 0.00 0.00 60 1008.2
20260505082452 64 153 3.0 9.0 0.00 0.00 0.00 59 1008.3
20260505081953 64 239 3.0 9.0 0.00 0.00 0.00 59 1008.2
20260505080950 64 165 4.0 11.0 0.00 0.00 0.00 59 1008.1
20260505080450 64 193 3.0 11.0 0.00 0.00 0.00 59 1008.1
20260505075949 64 205 3.0 9.0 0.00 0.00 0.00 59 1008.0
20260505075444 64 170 3.0 9.0 0.00 0.00 0.00 59 1008.1
20260505074943 64 194 3.0 11.0 0.00 0.00 0.00 60 1008.1
20260505074444 64 240 2.0 11.0 0.00 0.00 0.00 60 1008.1
20260505073944 64 219 1.0 6.0 0.00 0.00 0.00 59 1008.0
20260505073446 64 203 1.0 4.0 0.00 0.00 0.00 59 1008.0
20260505072946 64 169 1.0 6.0 0.00 0.00 0.00 58 1008.0
20260505072437 64 211 2.0 7.0 0.00 0.00 0.00 58 1007.9
20260505071937 64 184 2.0 7.0 0.00 0.00 0.00 58 1007.9
20260505071438 64 221 2.0 8.0 0.00 0.00 0.00 59 1007.9
20260505070939 64 179 1.0 8.0 0.00 0.00 0.00 59 1007.9
20260505070438 64 194 1.0 7.0 0.00 0.00 0.00 59 1007.8
20260505065939 64 177 0.0 7.0 0.00 0.00 0.00 59 1007.8
20260505065435 64 212 0.0 3.0 0.00 0.00 0.00 59 1007.8
20260505064935 64 159 0.0 3.0 0.00 0.00 0.00 58 1007.9
20260505063935 64 211 1.0 6.0 0.00 0.00 0.00 57 1007.7
20260505063435 64 201 1.0 6.0 0.00 0.00 0.00 58 1007.7
20260505062934 64 194 0.0 2.0 0.00 0.00 0.00 58 1007.8
20260505062435 63 232 0.0 2.0 0.00 0.00 0.00 58 1007.8
20260505061929 64 199 0.0 0.0 0.00 0.00 0.00 58 1007.7
20260505061429 64 194 0.0 1.0 0.00 0.00 0.00 58 1007.7
20260505060929 64 197 0.0 1.0 0.00 0.00 0.00 58 1007.8
20260505060431 64 203 0.0 1.0 0.00 0.00 0.00 58 1007.7
20260505055928 64 203 0.0 1.0 0.00 0.00 0.00 57 1007.7
20260505054420 64 198 0.0 1.0 0.00 0.00 0.00 57 1007.8
20260505052918 65 188 0.0 3.0 0.00 0.00 0.00 56 1007.9
20260505051914 65 205 1.0 3.0 0.00 0.00 0.00 56 1007.9
20260505051414 65 191 0.0 3.0 0.00 0.00 0.00 56 1007.8
20260505050912 65 162 0.0 1.0 0.00 0.00 0.00 56 1007.9
20260505050410 66 143 1.0 4.0 0.00 0.00 0.00 56 1007.9
20260505041354 67 228 1.0 5.0 0.00 0.00 0.00 53 1007.9
20260505040855 67 203 0.0 5.0 0.00 0.00 0.00 53 1007.9
20260505040354 67 207 0.0 1.0 0.00 0.00 0.00 52 1007.9
20260505035854 67 208 0.0 1.0 0.00 0.00 0.00 52 1007.8
20260505035347 67 210 0.0 2.0 0.00 0.00 0.00 52 1007.8
20260505033849 68 212 0.0 3.0 0.00 0.00 0.00 51 1007.7
20260505033348 68 201 0.0 5.0 0.00 0.00 0.00 51 1007.7
20260505032847 68 190 1.0 6.0 0.00 0.00 0.00 50 1007.8
20260505032346 69 222 1.0 6.0 0.00 0.00 0.00 50 1007.7
20260505031841 69 211 1.0 5.0 0.00 0.00 0.00 49 1007.7
20260505030844 69 297 1.0 6.0 0.00 0.00 0.00 49 1007.7
20260505030341 69 217 2.0 6.0 0.00 0.00 0.00 48 1007.7
20260505025840 69 204 2.0 6.0 0.00 0.00 0.00 48 1007.7
20260505025335 69 186 3.0 7.0 0.00 0.00 0.00 48 1007.6
20260505024335 70 207 2.0 7.0 0.00 0.00 0.00 48 1007.7
20260505023835 70 187 2.0 7.0 0.00 0.00 0.00 48 1007.7
20260505022836 70 204 2.0 7.0 0.00 0.00 0.00 47 1007.6
20260505022329 70 218 1.0 6.0 0.00 0.00 0.00 47 1007.7
20260505021830 70 186 1.0 6.0 0.00 0.00 0.00 47 1007.6
20260505020829 70 269 3.0 9.0 0.00 0.00 0.00 46 1007.4
20260505020329 71 215 2.0 9.0 0.00 0.00 0.00 46 1007.5
20260505015829 71 198 3.0 10.0 0.00 0.00 0.00 45 1007.6
20260505015324 71 187 3.0 10.0 0.00 0.00 0.00 45 1007.5
20260505014825 71 219 2.0 9.0 0.00 0.00 0.00 44 1007.4
20260505014324 71 210 3.0 9.0 0.00 0.00 0.00 44 1007.4
20260505013824 71 201 3.0 9.0 0.00 0.00 0.00 44 1007.2
20260505012823 71 191 3.0 8.0 0.00 0.00 0.00 44 1007.2
20260505012325 71 268 2.0 5.0 0.00 0.00 0.00 44 1007.1